Weather in Annino

Russia / Saint-Petersburg and Leningrad Oblast     59°46′22″N   30°03′23″E
temp.,
°C
wind,
m/s
gust,
m/s
humid.,
%
clouds,
%
prec.,
mm/h
press.,
hPa
HPBL,
m
18 may, tue
tue1800:00+15sse41392100 1.3 1006522
03:00+15sse31096100 1.8 1005302
06:00+15nw2298100 0.0 100483
09:00+16ne2397100 1.8 1004293
12:00+19ene1384100 0.3 1004604
15:00+23se3669100 0.6 10041201
18:00+22s3676100 5.0 1002471
21:00+17e3597100 10.0 1004135
19 may, wed
wed1900:00+15e2499100 1.9 1004124
03:00+15e3695100 2.1 1003128
06:00+15ese3119255 0.1 1001273
09:00+19se510800 0.1 1001490
12:00+23se7116617 0.5 10001509
15:00+19sse7148179 2.6 9991229
18:00+18ssw6108522 1.6 1000886
21:00+14ssw499438 1.9 1003505
20 may, thu
thu2000:00+13s2799100 0.0 1004208
03:00+13s259697 0.0 1005323
06:00+12w3594100 0.0 1005268
09:00+13wsw2284100 0.0 1006494
12:00+12nnw3490100 0.0 1006409
15:00+11nw5896100 4.7 1004358
18:00+11nw51198100 10.1 1002577
21:00+9wnw61198100 14.1 1001492
21 may, fri
fri2100:00+9wnw71296100 4.3 1001728
03:00+9w61194100 6.9 1002635
06:00+7wsw61389100 0.6 1003476
09:00+10wsw611765 0.6 1004730
12:00+14wsw795254 0.0 10052140
15:00+13wsw7106191 0.7 10061700
18:00+12w6117055 0.9 10081600
21:00+9wsw497771 1.1 1009459
22 may, sat
sat2200:00+8sw6137067 0.0 1010513
03:00+8sw5128686 0.1 1010703
06:00+8s5119142 0.4 1010436
09:00+13ssw6107094 0.4 1010690
12:00+16s71156100 0.1 10081765
15:00+11s71589100 1.4 10081401
18:00+12ssw6108631 0.4 1008993
21:00+11ssw4109014 0.8 1009439